Index of /20260428/WXO-DD/model_rdps/10km/18/074
Name Last modified Size Description
Parent Directory -
20260428T18Z_MSC_RDPS_AbsoluteVorticity_IsbL-0250_RLatLon0.09_PT074H.grib2 2026-04-28 21:02 599K
20260428T18Z_MSC_RDPS_AbsoluteVorticity_IsbL-0500_RLatLon0.09_PT074H.grib2 2026-04-28 21:02 555K
20260428T18Z_MSC_RDPS_AbsoluteVorticity_IsbL-0700_RLatLon0.09_PT074H.grib2 2026-04-28 21:02 618K
20260428T18Z_MSC_RDPS_AbsoluteVorticity_IsbL-0850_RLatLon0.09_PT074H.grib2 2026-04-28 21:02 770K
20260428T18Z_MSC_RDPS_AirTemp_AGL-120m_RLatLon0.09_PT074H.grib2 2026-04-28 21:02 391K
20260428T18Z_MSC_RDPS_AirTemp_AGL-2m_RLatLon0.09_PT074H.grib2 2026-04-28 21:02 627K
20260428T18Z_MSC_RDPS_AirTemp_AGL-40m_RLatLon0.09_PT074H.grib2 2026-04-28 21:02 401K
20260428T18Z_MSC_RDPS_AirTemp_AGL-80m_RLatLon0.09_PT074H.grib2 2026-04-28 21:02 395K
20260428T18Z_MSC_RDPS_AirTemp_IsbL-0001_RLatLon0.09_PT074H.grib2 2026-04-28 21:02 275K
20260428T18Z_MSC_RDPS_AirTemp_IsbL-0005_RLatLon0.09_PT074H.grib2 2026-04-28 21:02 290K
20260428T18Z_MSC_RDPS_AirTemp_IsbL-0010_RLatLon0.09_PT074H.grib2 2026-04-28 21:02 300K
20260428T18Z_MSC_RDPS_AirTemp_IsbL-0020_RLatLon0.09_PT074H.grib2 2026-04-28 21:02 319K
20260428T18Z_MSC_RDPS_AirTemp_IsbL-0030_RLatLon0.09_PT074H.grib2 2026-04-28 21:02 339K
20260428T18Z_MSC_RDPS_AirTemp_IsbL-0050_RLatLon0.09_PT074H.grib2 2026-04-28 21:02 313K
20260428T18Z_MSC_RDPS_AirTemp_IsbL-0100_RLatLon0.09_PT074H.grib2 2026-04-28 21:02 420K
20260428T18Z_MSC_RDPS_AirTemp_IsbL-0150_RLatLon0.09_PT074H.grib2 2026-04-28 21:02 416K
20260428T18Z_MSC_RDPS_AirTemp_IsbL-0175_RLatLon0.09_PT074H.grib2 2026-04-28 21:02 410K
20260428T18Z_MSC_RDPS_AirTemp_IsbL-0200_RLatLon0.09_PT074H.grib2 2026-04-28 21:02 412K
20260428T18Z_MSC_RDPS_AirTemp_IsbL-0225_RLatLon0.09_PT074H.grib2 2026-04-28 21:02 410K
20260428T18Z_MSC_RDPS_AirTemp_IsbL-0250_RLatLon0.09_PT074H.grib2 2026-04-28 21:02 414K
20260428T18Z_MSC_RDPS_AirTemp_IsbL-0275_RLatLon0.09_PT074H.grib2 2026-04-28 21:02 395K
20260428T18Z_MSC_RDPS_AirTemp_IsbL-0300_RLatLon0.09_PT074H.grib2 2026-04-28 21:02 401K
20260428T18Z_MSC_RDPS_AirTemp_IsbL-0350_RLatLon0.09_PT074H.grib2 2026-04-28 21:02 417K
20260428T18Z_MSC_RDPS_AirTemp_IsbL-0400_RLatLon0.09_PT074H.grib2 2026-04-28 21:02 420K
20260428T18Z_MSC_RDPS_AirTemp_IsbL-0450_RLatLon0.09_PT074H.grib2 2026-04-28 21:02 392K
20260428T18Z_MSC_RDPS_AirTemp_IsbL-0500_RLatLon0.09_PT074H.grib2 2026-04-28 21:02 404K
20260428T18Z_MSC_RDPS_AirTemp_IsbL-0550_RLatLon0.09_PT074H.grib2 2026-04-28 21:02 423K
20260428T18Z_MSC_RDPS_AirTemp_IsbL-0600_RLatLon0.09_PT074H.grib2 2026-04-28 21:02 445K
20260428T18Z_MSC_RDPS_AirTemp_IsbL-0650_RLatLon0.09_PT074H.grib2 2026-04-28 21:02 358K
20260428T18Z_MSC_RDPS_AirTemp_IsbL-0700_RLatLon0.09_PT074H.grib2 2026-04-28 21:02 380K
20260428T18Z_MSC_RDPS_AirTemp_IsbL-0750_RLatLon0.09_PT074H.grib2 2026-04-28 21:02 412K
20260428T18Z_MSC_RDPS_AirTemp_IsbL-0800_RLatLon0.09_PT074H.grib2 2026-04-28 21:02 453K
20260428T18Z_MSC_RDPS_AirTemp_IsbL-0850_RLatLon0.09_PT074H.grib2 2026-04-28 21:02 500K
20260428T18Z_MSC_RDPS_AirTemp_IsbL-0875_RLatLon0.09_PT074H.grib2 2026-04-28 21:02 520K
20260428T18Z_MSC_RDPS_AirTemp_IsbL-0900_RLatLon0.09_PT074H.grib2 2026-04-28 21:02 526K
20260428T18Z_MSC_RDPS_AirTemp_IsbL-0925_RLatLon0.09_PT074H.grib2 2026-04-28 21:02 524K
20260428T18Z_MSC_RDPS_AirTemp_IsbL-0950_RLatLon0.09_PT074H.grib2 2026-04-28 21:02 526K
20260428T18Z_MSC_RDPS_AirTemp_IsbL-0970_RLatLon0.09_PT074H.grib2 2026-04-28 21:02 521K
20260428T18Z_MSC_RDPS_AirTemp_IsbL-0985_RLatLon0.09_PT074H.grib2 2026-04-28 21:02 513K
20260428T18Z_MSC_RDPS_AirTemp_IsbL-1000_RLatLon0.09_PT074H.grib2 2026-04-28 21:02 514K
20260428T18Z_MSC_RDPS_AirTemp_IsbL-1015_RLatLon0.09_PT074H.grib2 2026-04-28 21:02 509K
20260428T18Z_MSC_RDPS_Albedo_Sfc_RLatLon0.09_PT074H.grib2 2026-04-28 21:02 163K
20260428T18Z_MSC_RDPS_CAPE_Sfc_RLatLon0.09_PT074H.grib2 2026-04-28 21:02 1.7M
20260428T18Z_MSC_RDPS_CIN_Sfc_RLatLon0.09_PT074H.grib2 2026-04-28 21:02 1.2M
20260428T18Z_MSC_RDPS_CloudWater_EAtm_RLatLon0.09_PT074H.grib2 2026-04-28 21:02 223K
20260428T18Z_MSC_RDPS_ConvectivePrecip-Accum_Sfc_RLatLon0.09_PT074H.grib2 2026-04-28 21:02 1.2M
20260428T18Z_MSC_RDPS_DewPointDepression_AGL-2m_RLatLon0.09_PT074H.grib2 2026-04-28 21:02 416K
20260428T18Z_MSC_RDPS_DewPointDepression_IsbL-0001_RLatLon0.09_PT074H.grib2 2026-04-28 21:02 193
20260428T18Z_MSC_RDPS_DewPointDepression_IsbL-0005_RLatLon0.09_PT074H.grib2 2026-04-28 21:02 193
20260428T18Z_MSC_RDPS_DewPointDepression_IsbL-0010_RLatLon0.09_PT074H.grib2 2026-04-28 21:02 193
20260428T18Z_MSC_RDPS_DewPointDepression_IsbL-0020_RLatLon0.09_PT074H.grib2 2026-04-28 21:02 193
20260428T18Z_MSC_RDPS_DewPointDepression_IsbL-0030_RLatLon0.09_PT074H.grib2 2026-04-28 21:02 193
20260428T18Z_MSC_RDPS_DewPointDepression_IsbL-0050_RLatLon0.09_PT074H.grib2 2026-04-28 21:02 78K
20260428T18Z_MSC_RDPS_DewPointDepression_IsbL-0100_RLatLon0.09_PT074H.grib2 2026-04-28 21:02 125K
20260428T18Z_MSC_RDPS_DewPointDepression_IsbL-0150_RLatLon0.09_PT074H.grib2 2026-04-28 21:02 150K
20260428T18Z_MSC_RDPS_DewPointDepression_IsbL-0175_RLatLon0.09_PT074H.grib2 2026-04-28 21:02 187K
20260428T18Z_MSC_RDPS_DewPointDepression_IsbL-0200_RLatLon0.09_PT074H.grib2 2026-04-28 21:02 222K
20260428T18Z_MSC_RDPS_DewPointDepression_IsbL-0225_RLatLon0.09_PT074H.grib2 2026-04-28 21:02 257K
20260428T18Z_MSC_RDPS_DewPointDepression_IsbL-0250_RLatLon0.09_PT074H.grib2 2026-04-28 21:02 294K
20260428T18Z_MSC_RDPS_DewPointDepression_IsbL-0275_RLatLon0.09_PT074H.grib2 2026-04-28 21:02 304K
20260428T18Z_MSC_RDPS_DewPointDepression_IsbL-0300_RLatLon0.09_PT074H.grib2 2026-04-28 21:02 323K
20260428T18Z_MSC_RDPS_DewPointDepression_IsbL-0350_RLatLon0.09_PT074H.grib2 2026-04-28 21:02 327K
20260428T18Z_MSC_RDPS_DewPointDepression_IsbL-0400_RLatLon0.09_PT074H.grib2 2026-04-28 21:02 339K
20260428T18Z_MSC_RDPS_DewPointDepression_IsbL-0450_RLatLon0.09_PT074H.grib2 2026-04-28 21:02 349K
20260428T18Z_MSC_RDPS_DewPointDepression_IsbL-0500_RLatLon0.09_PT074H.grib2 2026-04-28 21:02 354K
20260428T18Z_MSC_RDPS_DewPointDepression_IsbL-0550_RLatLon0.09_PT074H.grib2 2026-04-28 21:02 365K
20260428T18Z_MSC_RDPS_DewPointDepression_IsbL-0600_RLatLon0.09_PT074H.grib2 2026-04-28 21:02 378K
20260428T18Z_MSC_RDPS_DewPointDepression_IsbL-0650_RLatLon0.09_PT074H.grib2 2026-04-28 21:02 380K
20260428T18Z_MSC_RDPS_DewPointDepression_IsbL-0700_RLatLon0.09_PT074H.grib2 2026-04-28 21:02 389K
20260428T18Z_MSC_RDPS_DewPointDepression_IsbL-0750_RLatLon0.09_PT074H.grib2 2026-04-28 21:02 413K
20260428T18Z_MSC_RDPS_DewPointDepression_IsbL-0800_RLatLon0.09_PT074H.grib2 2026-04-28 21:02 449K
20260428T18Z_MSC_RDPS_DewPointDepression_IsbL-0850_RLatLon0.09_PT074H.grib2 2026-04-28 21:02 478K
20260428T18Z_MSC_RDPS_DewPointDepression_IsbL-0875_RLatLon0.09_PT074H.grib2 2026-04-28 21:02 480K
20260428T18Z_MSC_RDPS_DewPointDepression_IsbL-0900_RLatLon0.09_PT074H.grib2 2026-04-28 21:02 469K
20260428T18Z_MSC_RDPS_DewPointDepression_IsbL-0925_RLatLon0.09_PT074H.grib2 2026-04-28 21:02 452K
20260428T18Z_MSC_RDPS_DewPointDepression_IsbL-0950_RLatLon0.09_PT074H.grib2 2026-04-28 21:02 445K
20260428T18Z_MSC_RDPS_DewPointDepression_IsbL-0970_RLatLon0.09_PT074H.grib2 2026-04-28 21:02 437K
20260428T18Z_MSC_RDPS_DewPointDepression_IsbL-0985_RLatLon0.09_PT074H.grib2 2026-04-28 21:02 433K
20260428T18Z_MSC_RDPS_DewPointDepression_IsbL-1000_RLatLon0.09_PT074H.grib2 2026-04-28 21:02 428K
20260428T18Z_MSC_RDPS_DewPointDepression_IsbL-1015_RLatLon0.09_PT074H.grib2 2026-04-28 21:02 417K
20260428T18Z_MSC_RDPS_DewPoint_AGL-2m_RLatLon0.09_PT074H.grib2 2026-04-28 21:02 395K
20260428T18Z_MSC_RDPS_DownwardLongwaveRadiationFlux-Accum_Sfc_RLatLon0.09_PT074H.grib2 2026-04-28 21:02 424K
20260428T18Z_MSC_RDPS_DownwardShortwaveRadiationFlux-Accum_NTAtm_RLatLon0.09_PT074H.grib2 2026-04-28 21:02 109K
20260428T18Z_MSC_RDPS_DownwardShortwaveRadiationFlux-Accum_Sfc_RLatLon0.09_PT074H.grib2 2026-04-28 21:02 625K
20260428T18Z_MSC_RDPS_FreezingRain-Accum1h_Sfc_RLatLon0.09_PT074H.grib2 2026-04-28 21:02 15K
20260428T18Z_MSC_RDPS_FreezingRain-Accum_Sfc_RLatLon0.09_PT074H.grib2 2026-04-28 21:02 224K
20260428T18Z_MSC_RDPS_GeopotentialHeight_IsbL-0001_RLatLon0.09_PT074H.grib2 2026-04-28 21:02 318K
20260428T18Z_MSC_RDPS_GeopotentialHeight_IsbL-0005_RLatLon0.09_PT074H.grib2 2026-04-28 21:02 338K
20260428T18Z_MSC_RDPS_GeopotentialHeight_IsbL-0010_RLatLon0.09_PT074H.grib2 2026-04-28 21:02 340K
20260428T18Z_MSC_RDPS_GeopotentialHeight_IsbL-0020_RLatLon0.09_PT074H.grib2 2026-04-28 21:02 306K
20260428T18Z_MSC_RDPS_GeopotentialHeight_IsbL-0030_RLatLon0.09_PT074H.grib2 2026-04-28 21:02 308K
20260428T18Z_MSC_RDPS_GeopotentialHeight_IsbL-0050_RLatLon0.09_PT074H.grib2 2026-04-28 21:02 308K
20260428T18Z_MSC_RDPS_GeopotentialHeight_IsbL-0100_RLatLon0.09_PT074H.grib2 2026-04-28 21:02 284K
20260428T18Z_MSC_RDPS_GeopotentialHeight_IsbL-0150_RLatLon0.09_PT074H.grib2 2026-04-28 21:02 229K
20260428T18Z_MSC_RDPS_GeopotentialHeight_IsbL-0175_RLatLon0.09_PT074H.grib2 2026-04-28 21:02 262K
20260428T18Z_MSC_RDPS_GeopotentialHeight_IsbL-0200_RLatLon0.09_PT074H.grib2 2026-04-28 21:02 265K
20260428T18Z_MSC_RDPS_GeopotentialHeight_IsbL-0225_RLatLon0.09_PT074H.grib2 2026-04-28 21:02 267K
20260428T18Z_MSC_RDPS_GeopotentialHeight_IsbL-0250_RLatLon0.09_PT074H.grib2 2026-04-28 21:02 268K
20260428T18Z_MSC_RDPS_GeopotentialHeight_IsbL-0275_RLatLon0.09_PT074H.grib2 2026-04-28 21:02 266K
20260428T18Z_MSC_RDPS_GeopotentialHeight_IsbL-0300_RLatLon0.09_PT074H.grib2 2026-04-28 21:02 265K
20260428T18Z_MSC_RDPS_GeopotentialHeight_IsbL-0350_RLatLon0.09_PT074H.grib2 2026-04-28 21:02 230K
20260428T18Z_MSC_RDPS_GeopotentialHeight_IsbL-0400_RLatLon0.09_PT074H.grib2 2026-04-28 21:02 228K
20260428T18Z_MSC_RDPS_GeopotentialHeight_IsbL-0450_RLatLon0.09_PT074H.grib2 2026-04-28 21:02 296K
20260428T18Z_MSC_RDPS_GeopotentialHeight_IsbL-0500_RLatLon0.09_PT074H.grib2 2026-04-28 21:02 291K
20260428T18Z_MSC_RDPS_GeopotentialHeight_IsbL-0550_RLatLon0.09_PT074H.grib2 2026-04-28 21:02 288K
20260428T18Z_MSC_RDPS_GeopotentialHeight_IsbL-0600_RLatLon0.09_PT074H.grib2 2026-04-28 21:02 286K
20260428T18Z_MSC_RDPS_GeopotentialHeight_IsbL-0650_RLatLon0.09_PT074H.grib2 2026-04-28 21:02 257K
20260428T18Z_MSC_RDPS_GeopotentialHeight_IsbL-0700_RLatLon0.09_PT074H.grib2 2026-04-28 21:02 338K
20260428T18Z_MSC_RDPS_GeopotentialHeight_IsbL-0750_RLatLon0.09_PT074H.grib2 2026-04-28 21:02 341K
20260428T18Z_MSC_RDPS_GeopotentialHeight_IsbL-0800_RLatLon0.09_PT074H.grib2 2026-04-28 21:02 348K
20260428T18Z_MSC_RDPS_GeopotentialHeight_IsbL-0850_RLatLon0.09_PT074H.grib2 2026-04-28 21:02 355K
20260428T18Z_MSC_RDPS_GeopotentialHeight_IsbL-0875_RLatLon0.09_PT074H.grib2 2026-04-28 21:02 359K
20260428T18Z_MSC_RDPS_GeopotentialHeight_IsbL-0900_RLatLon0.09_PT074H.grib2 2026-04-28 21:02 362K
20260428T18Z_MSC_RDPS_GeopotentialHeight_IsbL-0925_RLatLon0.09_PT074H.grib2 2026-04-28 21:02 364K
20260428T18Z_MSC_RDPS_GeopotentialHeight_IsbL-0950_RLatLon0.09_PT074H.grib2 2026-04-28 21:02 402K
20260428T18Z_MSC_RDPS_GeopotentialHeight_IsbL-0970_RLatLon0.09_PT074H.grib2 2026-04-28 21:02 409K
20260428T18Z_MSC_RDPS_GeopotentialHeight_IsbL-0985_RLatLon0.09_PT074H.grib2 2026-04-28 21:02 419K
20260428T18Z_MSC_RDPS_GeopotentialHeight_IsbL-1000_RLatLon0.09_PT074H.grib2 2026-04-28 21:02 432K
20260428T18Z_MSC_RDPS_GeopotentialHeight_IsbL-1015_RLatLon0.09_PT074H.grib2 2026-04-28 21:02 449K
20260428T18Z_MSC_RDPS_Humidex_Sfc_RLatLon0.09_PT074H.grib2 2026-04-28 21:02 2.4M
20260428T18Z_MSC_RDPS_IcePellets-Accum1h_Sfc_RLatLon0.09_PT074H.grib2 2026-04-28 21:02 7.1K
20260428T18Z_MSC_RDPS_IcePellets-Accum_Sfc_RLatLon0.09_PT074H.grib2 2026-04-28 21:02 33K
20260428T18Z_MSC_RDPS_KIndex_Sfc_RLatLon0.09_PT074H.grib2 2026-04-28 21:02 2.5M
20260428T18Z_MSC_RDPS_LatentHeatNetFlux_Sfc_RLatLon0.09_PT074H.grib2 2026-04-28 21:02 302K
20260428T18Z_MSC_RDPS_LiftedIndex-MU-VT_IsbL-0500_RLatLon0.09_PT074H.grib2 2026-04-28 21:02 2.4M
20260428T18Z_MSC_RDPS_NetLongwaveRadiationFlux-Accum_Sfc_RLatLon0.09_PT074H.grib2 2026-04-28 21:02 471K
20260428T18Z_MSC_RDPS_NetShortwaveRadiationFlux-Accum_Sfc_RLatLon0.09_PT074H.grib2 2026-04-28 21:02 628K
20260428T18Z_MSC_RDPS_PlanetaryBoundaryLayerHeight_Sfc_RLatLon0.09_PT074H.grib2 2026-04-28 21:02 1.0M
20260428T18Z_MSC_RDPS_Precip-Accum1h_Sfc_RLatLon0.09_PT074H.grib2 2026-04-28 21:02 1.2M
20260428T18Z_MSC_RDPS_Precip-Accum_Sfc_RLatLon0.09_PT074H.grib2 2026-04-28 21:02 2.2M
20260428T18Z_MSC_RDPS_PrecipRate_Sfc_RLatLon0.09_PT074H.grib2 2026-04-28 21:02 163K
20260428T18Z_MSC_RDPS_PrecipType-Instant_Sfc_RLatLon0.09_PT074H.grib2 2026-04-28 21:02 561K
20260428T18Z_MSC_RDPS_Pressure-Trend3h_Sfc_RLatLon0.09_PT074H.grib2 2026-04-28 21:02 1.2M
20260428T18Z_MSC_RDPS_Pressure_MSL_RLatLon0.09_PT074H.grib2 2026-04-28 21:02 329K
20260428T18Z_MSC_RDPS_Pressure_PVU-1.5_RLatLon0.09_PT074H.grib2 2026-04-28 21:02 2.5M
20260428T18Z_MSC_RDPS_Pressure_PVU-1_RLatLon0.09_PT074H.grib2 2026-04-28 21:02 2.4M
20260428T18Z_MSC_RDPS_Pressure_PVU-2_RLatLon0.09_PT074H.grib2 2026-04-28 21:02 2.4M
20260428T18Z_MSC_RDPS_Pressure_Sfc_RLatLon0.09_PT074H.grib2 2026-04-28 21:02 498K
20260428T18Z_MSC_RDPS_RadiativeTemp_Sfc_RLatLon0.09_PT074H.grib2 2026-04-28 21:02 330K
20260428T18Z_MSC_RDPS_Rain-Accum1h_Sfc_RLatLon0.09_PT074H.grib2 2026-04-28 21:02 521K
20260428T18Z_MSC_RDPS_Rain-Accum_Sfc_RLatLon0.09_PT074H.grib2 2026-04-28 21:02 1.7M
20260428T18Z_MSC_RDPS_RelativeHumidity_AGL-2m_RLatLon0.09_PT074H.grib2 2026-04-28 21:02 1.0M
20260428T18Z_MSC_RDPS_RelativeHumidity_IsbL-0010_RLatLon0.09_PT074H.grib2 2026-04-28 21:02 612K
20260428T18Z_MSC_RDPS_RelativeHumidity_IsbL-0020_RLatLon0.09_PT074H.grib2 2026-04-28 21:02 665K
20260428T18Z_MSC_RDPS_RelativeHumidity_IsbL-0030_RLatLon0.09_PT074H.grib2 2026-04-28 21:02 606K
20260428T18Z_MSC_RDPS_RelativeHumidity_IsbL-0050_RLatLon0.09_PT074H.grib2 2026-04-28 21:02 312K
20260428T18Z_MSC_RDPS_RelativeHumidity_IsbL-0100_RLatLon0.09_PT074H.grib2 2026-04-28 21:02 272K
20260428T18Z_MSC_RDPS_RelativeHumidity_IsbL-0150_RLatLon0.09_PT074H.grib2 2026-04-28 21:02 398K
20260428T18Z_MSC_RDPS_RelativeHumidity_IsbL-0175_RLatLon0.09_PT074H.grib2 2026-04-28 21:02 469K
20260428T18Z_MSC_RDPS_RelativeHumidity_IsbL-0200_RLatLon0.09_PT074H.grib2 2026-04-28 21:02 555K
20260428T18Z_MSC_RDPS_RelativeHumidity_IsbL-0225_RLatLon0.09_PT074H.grib2 2026-04-28 21:02 621K
20260428T18Z_MSC_RDPS_RelativeHumidity_IsbL-0250_RLatLon0.09_PT074H.grib2 2026-04-28 21:02 685K
20260428T18Z_MSC_RDPS_RelativeHumidity_IsbL-0275_RLatLon0.09_PT074H.grib2 2026-04-28 21:02 709K
20260428T18Z_MSC_RDPS_RelativeHumidity_IsbL-0300_RLatLon0.09_PT074H.grib2 2026-04-28 21:02 751K
20260428T18Z_MSC_RDPS_RelativeHumidity_IsbL-0350_RLatLon0.09_PT074H.grib2 2026-04-28 21:02 766K
20260428T18Z_MSC_RDPS_RelativeHumidity_IsbL-0400_RLatLon0.09_PT074H.grib2 2026-04-28 21:02 781K
20260428T18Z_MSC_RDPS_RelativeHumidity_IsbL-0450_RLatLon0.09_PT074H.grib2 2026-04-28 21:02 793K
20260428T18Z_MSC_RDPS_RelativeHumidity_IsbL-0500_RLatLon0.09_PT074H.grib2 2026-04-28 21:02 800K
20260428T18Z_MSC_RDPS_RelativeHumidity_IsbL-0550_RLatLon0.09_PT074H.grib2 2026-04-28 21:02 821K
20260428T18Z_MSC_RDPS_RelativeHumidity_IsbL-0600_RLatLon0.09_PT074H.grib2 2026-04-28 21:02 854K
20260428T18Z_MSC_RDPS_RelativeHumidity_IsbL-0650_RLatLon0.09_PT074H.grib2 2026-04-28 21:02 848K
20260428T18Z_MSC_RDPS_RelativeHumidity_IsbL-0700_RLatLon0.09_PT074H.grib2 2026-04-28 21:02 871K
20260428T18Z_MSC_RDPS_RelativeHumidity_IsbL-0750_RLatLon0.09_PT074H.grib2 2026-04-28 21:02 926K
20260428T18Z_MSC_RDPS_RelativeHumidity_IsbL-0800_RLatLon0.09_PT074H.grib2 2026-04-28 21:02 1.0M
20260428T18Z_MSC_RDPS_RelativeHumidity_IsbL-0850_RLatLon0.09_PT074H.grib2 2026-04-28 21:02 1.0M
20260428T18Z_MSC_RDPS_RelativeHumidity_IsbL-0875_RLatLon0.09_PT074H.grib2 2026-04-28 21:02 1.1M
20260428T18Z_MSC_RDPS_RelativeHumidity_IsbL-0900_RLatLon0.09_PT074H.grib2 2026-04-28 21:02 1.1M
20260428T18Z_MSC_RDPS_RelativeHumidity_IsbL-0925_RLatLon0.09_PT074H.grib2 2026-04-28 21:02 1.1M
20260428T18Z_MSC_RDPS_RelativeHumidity_IsbL-0950_RLatLon0.09_PT074H.grib2 2026-04-28 21:02 1.1M
20260428T18Z_MSC_RDPS_RelativeHumidity_IsbL-0970_RLatLon0.09_PT074H.grib2 2026-04-28 21:02 1.0M
20260428T18Z_MSC_RDPS_RelativeHumidity_IsbL-0985_RLatLon0.09_PT074H.grib2 2026-04-28 21:02 1.0M
20260428T18Z_MSC_RDPS_RelativeHumidity_IsbL-1000_RLatLon0.09_PT074H.grib2 2026-04-28 21:02 1.0M
20260428T18Z_MSC_RDPS_RelativeHumidity_IsbL-1015_RLatLon0.09_PT074H.grib2 2026-04-28 21:02 1.0M
20260428T18Z_MSC_RDPS_Runoff-Accum_Sfc_RLatLon0.09_PT074H.grib2 2026-04-28 21:02 66K
20260428T18Z_MSC_RDPS_SWEATIndex_Sfc_RLatLon0.09_PT074H.grib2 2026-04-28 21:02 2.4M
20260428T18Z_MSC_RDPS_SeeingIndex_EAtm_RLatLon0.09_PT074H.grib2 2026-04-28 21:02 1.0M
20260428T18Z_MSC_RDPS_SensibleHeatNetFlux_Sfc_RLatLon0.09_PT074H.grib2 2026-04-28 21:02 360K
20260428T18Z_MSC_RDPS_ShowalterIndex_IsbL-0500_RLatLon0.09_PT074H.grib2 2026-04-28 21:02 2.6M
20260428T18Z_MSC_RDPS_SkyTransparencyIndex_EAtm_RLatLon0.09_PT074H.grib2 2026-04-28 21:02 705K
20260428T18Z_MSC_RDPS_Snow-Accum1h_Sfc_RLatLon0.09_PT074H.grib2 2026-04-28 21:02 454K
20260428T18Z_MSC_RDPS_Snow-Accum_Sfc_RLatLon0.09_PT074H.grib2 2026-04-28 21:02 805K
20260428T18Z_MSC_RDPS_SnowDensity_Sfc_RLatLon0.09_PT074H.grib2 2026-04-28 21:02 181K
20260428T18Z_MSC_RDPS_SnowDepth_Sfc_RLatLon0.09_PT074H.grib2 2026-04-28 21:02 679K
20260428T18Z_MSC_RDPS_SoilTemp_DBS-0to10cm_RLatLon0.09_PT074H.grib2 2026-04-28 21:02 246K
20260428T18Z_MSC_RDPS_SoilTemp_Sfc_RLatLon0.09_PT074H.grib2 2026-04-28 21:02 293K
20260428T18Z_MSC_RDPS_SoilVolumetricIceContent_Sfc_RLatLon0.09_PT074H.grib2 2026-04-28 21:02 162K
20260428T18Z_MSC_RDPS_SoilVolumetricWaterContent_DBS-0to10cm_RLatLon0.09_PT074H.grib2 2026-04-28 21:02 271K
20260428T18Z_MSC_RDPS_SoilVolumetricWaterContent_DBS-0to1cm_RLatLon0.09_PT074H.grib2 2026-04-28 21:02 339K
20260428T18Z_MSC_RDPS_SpecificHumidity_AGL-120m_RLatLon0.09_PT074H.grib2 2026-04-28 21:02 492K
20260428T18Z_MSC_RDPS_SpecificHumidity_AGL-2m_RLatLon0.09_PT074H.grib2 2026-04-28 21:02 660K
20260428T18Z_MSC_RDPS_SpecificHumidity_AGL-40m_RLatLon0.09_PT074H.grib2 2026-04-28 21:02 496K
20260428T18Z_MSC_RDPS_SpecificHumidity_AGL-80m_RLatLon0.09_PT074H.grib2 2026-04-28 21:02 493K
20260428T18Z_MSC_RDPS_SpecificHumidity_IsbL-0001_RLatLon0.09_PT074H.grib2 2026-04-28 21:02 369K
20260428T18Z_MSC_RDPS_SpecificHumidity_IsbL-0005_RLatLon0.09_PT074H.grib2 2026-04-28 21:02 352K
20260428T18Z_MSC_RDPS_SpecificHumidity_IsbL-0010_RLatLon0.09_PT074H.grib2 2026-04-28 21:02 385K
20260428T18Z_MSC_RDPS_SpecificHumidity_IsbL-0020_RLatLon0.09_PT074H.grib2 2026-04-28 21:02 371K
20260428T18Z_MSC_RDPS_SpecificHumidity_IsbL-0030_RLatLon0.09_PT074H.grib2 2026-04-28 21:02 469K
20260428T18Z_MSC_RDPS_SpecificHumidity_IsbL-0050_RLatLon0.09_PT074H.grib2 2026-04-28 21:02 435K
20260428T18Z_MSC_RDPS_SpecificHumidity_IsbL-0100_RLatLon0.09_PT074H.grib2 2026-04-28 21:02 520K
20260428T18Z_MSC_RDPS_SpecificHumidity_IsbL-0150_RLatLon0.09_PT074H.grib2 2026-04-28 21:02 441K
20260428T18Z_MSC_RDPS_SpecificHumidity_IsbL-0175_RLatLon0.09_PT074H.grib2 2026-04-28 21:02 426K
20260428T18Z_MSC_RDPS_SpecificHumidity_IsbL-0200_RLatLon0.09_PT074H.grib2 2026-04-28 21:02 445K
20260428T18Z_MSC_RDPS_SpecificHumidity_IsbL-0225_RLatLon0.09_PT074H.grib2 2026-04-28 21:02 449K
20260428T18Z_MSC_RDPS_SpecificHumidity_IsbL-0250_RLatLon0.09_PT074H.grib2 2026-04-28 21:02 510K
20260428T18Z_MSC_RDPS_SpecificHumidity_IsbL-0275_RLatLon0.09_PT074H.grib2 2026-04-28 21:02 470K
20260428T18Z_MSC_RDPS_SpecificHumidity_IsbL-0300_RLatLon0.09_PT074H.grib2 2026-04-28 21:02 444K
20260428T18Z_MSC_RDPS_SpecificHumidity_IsbL-0350_RLatLon0.09_PT074H.grib2 2026-04-28 21:02 557K
20260428T18Z_MSC_RDPS_SpecificHumidity_IsbL-0400_RLatLon0.09_PT074H.grib2 2026-04-28 21:02 513K
20260428T18Z_MSC_RDPS_SpecificHumidity_IsbL-0450_RLatLon0.09_PT074H.grib2 2026-04-28 21:02 569K
20260428T18Z_MSC_RDPS_SpecificHumidity_IsbL-0500_RLatLon0.09_PT074H.grib2 2026-04-28 21:02 506K
20260428T18Z_MSC_RDPS_SpecificHumidity_IsbL-0550_RLatLon0.09_PT074H.grib2 2026-04-28 21:02 580K
20260428T18Z_MSC_RDPS_SpecificHumidity_IsbL-0600_RLatLon0.09_PT074H.grib2 2026-04-28 21:02 635K
20260428T18Z_MSC_RDPS_SpecificHumidity_IsbL-0650_RLatLon0.09_PT074H.grib2 2026-04-28 21:02 548K
20260428T18Z_MSC_RDPS_SpecificHumidity_IsbL-0700_RLatLon0.09_PT074H.grib2 2026-04-28 21:02 590K
20260428T18Z_MSC_RDPS_SpecificHumidity_IsbL-0750_RLatLon0.09_PT074H.grib2 2026-04-28 21:02 665K
20260428T18Z_MSC_RDPS_SpecificHumidity_IsbL-0800_RLatLon0.09_PT074H.grib2 2026-04-28 21:02 739K
20260428T18Z_MSC_RDPS_SpecificHumidity_IsbL-0850_RLatLon0.09_PT074H.grib2 2026-04-28 21:02 814K
20260428T18Z_MSC_RDPS_SpecificHumidity_IsbL-0875_RLatLon0.09_PT074H.grib2 2026-04-28 21:02 839K
20260428T18Z_MSC_RDPS_SpecificHumidity_IsbL-0900_RLatLon0.09_PT074H.grib2 2026-04-28 21:02 710K
20260428T18Z_MSC_RDPS_SpecificHumidity_IsbL-0925_RLatLon0.09_PT074H.grib2 2026-04-28 21:02 708K
20260428T18Z_MSC_RDPS_SpecificHumidity_IsbL-0950_RLatLon0.09_PT074H.grib2 2026-04-28 21:02 710K
20260428T18Z_MSC_RDPS_SpecificHumidity_IsbL-0970_RLatLon0.09_PT074H.grib2 2026-04-28 21:02 700K
20260428T18Z_MSC_RDPS_SpecificHumidity_IsbL-0985_RLatLon0.09_PT074H.grib2 2026-04-28 21:02 692K
20260428T18Z_MSC_RDPS_SpecificHumidity_IsbL-1000_RLatLon0.09_PT074H.grib2 2026-04-28 21:02 684K
20260428T18Z_MSC_RDPS_SpecificHumidity_IsbL-1015_RLatLon0.09_PT074H.grib2 2026-04-28 21:02 672K
20260428T18Z_MSC_RDPS_SpecificHumidity_Sfc_RLatLon0.09_PT074H.grib2 2026-04-28 21:02 345K
20260428T18Z_MSC_RDPS_StormRelativeHelicity_EtaL-10000_RLatLon0.09_PT074H.grib2 2026-04-28 21:02 1.1M
20260428T18Z_MSC_RDPS_StormSeverityIndex_EtaL-10000_RLatLon0.09_PT074H.grib2 2026-04-28 21:02 1.2M
20260428T18Z_MSC_RDPS_Thickness_IsbL-0850to0700_RLatLon0.09_PT074H.grib2 2026-04-28 21:02 177K
20260428T18Z_MSC_RDPS_Thickness_IsbL-1000to0500_RLatLon0.09_PT074H.grib2 2026-04-28 21:02 137K
20260428T18Z_MSC_RDPS_Thickness_IsbL-1000to0850_RLatLon0.09_PT074H.grib2 2026-04-28 21:02 187K
20260428T18Z_MSC_RDPS_TotalCloudCover_Sfc_RLatLon0.09_PT074H.grib2 2026-04-28 21:02 638K
20260428T18Z_MSC_RDPS_TotalTotalsIndex_Sfc_RLatLon0.09_PT074H.grib2 2026-04-28 21:02 2.4M
20260428T18Z_MSC_RDPS_UVIndex-ClearSky_Sfc_RLatLon0.09_PT074H.grib2 2026-04-28 21:02 216K
20260428T18Z_MSC_RDPS_UVIndex_Sfc_RLatLon0.09_PT074H.grib2 2026-04-28 21:02 500K
20260428T18Z_MSC_RDPS_UpwardLongwaveRadiationFlux_NTAtm_RLatLon0.09_PT074H.grib2 2026-04-28 21:02 377K
20260428T18Z_MSC_RDPS_UpwardShortwaveRadiationFlux_NTAtm_RLatLon0.09_PT074H.grib2 2026-04-28 21:02 531K
20260428T18Z_MSC_RDPS_VerticalVelocity_IsbL-0250_RLatLon0.09_PT074H.grib2 2026-04-28 21:02 543K
20260428T18Z_MSC_RDPS_VerticalVelocity_IsbL-0500_RLatLon0.09_PT074H.grib2 2026-04-28 21:02 538K
20260428T18Z_MSC_RDPS_VerticalVelocity_IsbL-0700_RLatLon0.09_PT074H.grib2 2026-04-28 21:02 625K
20260428T18Z_MSC_RDPS_VerticalVelocity_IsbL-0850_RLatLon0.09_PT074H.grib2 2026-04-28 21:02 715K
20260428T18Z_MSC_RDPS_VerticalWindShear_EtaL-6500_RLatLon0.09_PT074H.grib2 2026-04-28 21:02 1.2M
20260428T18Z_MSC_RDPS_WindChill_Sfc_RLatLon0.09_PT074H.grib2 2026-04-28 21:02 1.1M
20260428T18Z_MSC_RDPS_WindDir_AGL-10m_RLatLon0.09_PT074H.grib2 2026-04-28 21:02 943K
20260428T18Z_MSC_RDPS_WindDir_AGL-120m_RLatLon0.09_PT074H.grib2 2026-04-28 21:02 594K
20260428T18Z_MSC_RDPS_WindDir_AGL-40m_RLatLon0.09_PT074H.grib2 2026-04-28 21:02 615K
20260428T18Z_MSC_RDPS_WindDir_AGL-80m_RLatLon0.09_PT074H.grib2 2026-04-28 21:02 603K
20260428T18Z_MSC_RDPS_WindDir_IsbL-0001_RLatLon0.09_PT074H.grib2 2026-04-28 21:02 290K
20260428T18Z_MSC_RDPS_WindDir_IsbL-0005_RLatLon0.09_PT074H.grib2 2026-04-28 21:02 356K
20260428T18Z_MSC_RDPS_WindDir_IsbL-0010_RLatLon0.09_PT074H.grib2 2026-04-28 21:02 374K
20260428T18Z_MSC_RDPS_WindDir_IsbL-0020_RLatLon0.09_PT074H.grib2 2026-04-28 21:02 415K
20260428T18Z_MSC_RDPS_WindDir_IsbL-0030_RLatLon0.09_PT074H.grib2 2026-04-28 21:02 412K
20260428T18Z_MSC_RDPS_WindDir_IsbL-0050_RLatLon0.09_PT074H.grib2 2026-04-28 21:02 408K
20260428T18Z_MSC_RDPS_WindDir_IsbL-0100_RLatLon0.09_PT074H.grib2 2026-04-28 21:02 411K
20260428T18Z_MSC_RDPS_WindDir_IsbL-0150_RLatLon0.09_PT074H.grib2 2026-04-28 21:02 412K
20260428T18Z_MSC_RDPS_WindDir_IsbL-0175_RLatLon0.09_PT074H.grib2 2026-04-28 21:02 433K
20260428T18Z_MSC_RDPS_WindDir_IsbL-0200_RLatLon0.09_PT074H.grib2 2026-04-28 21:02 445K
20260428T18Z_MSC_RDPS_WindDir_IsbL-0225_RLatLon0.09_PT074H.grib2 2026-04-28 21:02 449K
20260428T18Z_MSC_RDPS_WindDir_IsbL-0250_RLatLon0.09_PT074H.grib2 2026-04-28 21:02 444K
20260428T18Z_MSC_RDPS_WindDir_IsbL-0275_RLatLon0.09_PT074H.grib2 2026-04-28 21:02 468K
20260428T18Z_MSC_RDPS_WindDir_IsbL-0300_RLatLon0.09_PT074H.grib2 2026-04-28 21:02 467K
20260428T18Z_MSC_RDPS_WindDir_IsbL-0350_RLatLon0.09_PT074H.grib2 2026-04-28 21:02 492K
20260428T18Z_MSC_RDPS_WindDir_IsbL-0400_RLatLon0.09_PT074H.grib2 2026-04-28 21:02 508K
20260428T18Z_MSC_RDPS_WindDir_IsbL-0450_RLatLon0.09_PT074H.grib2 2026-04-28 21:02 517K
20260428T18Z_MSC_RDPS_WindDir_IsbL-0500_RLatLon0.09_PT074H.grib2 2026-04-28 21:02 533K
20260428T18Z_MSC_RDPS_WindDir_IsbL-0550_RLatLon0.09_PT074H.grib2 2026-04-28 21:02 549K
20260428T18Z_MSC_RDPS_WindDir_IsbL-0600_RLatLon0.09_PT074H.grib2 2026-04-28 21:02 577K
20260428T18Z_MSC_RDPS_WindDir_IsbL-0650_RLatLon0.09_PT074H.grib2 2026-04-28 21:02 616K
20260428T18Z_MSC_RDPS_WindDir_IsbL-0700_RLatLon0.09_PT074H.grib2 2026-04-28 21:02 660K
20260428T18Z_MSC_RDPS_WindDir_IsbL-0750_RLatLon0.09_PT074H.grib2 2026-04-28 21:02 709K
20260428T18Z_MSC_RDPS_WindDir_IsbL-0800_RLatLon0.09_PT074H.grib2 2026-04-28 21:02 771K
20260428T18Z_MSC_RDPS_WindDir_IsbL-0850_RLatLon0.09_PT074H.grib2 2026-04-28 21:02 837K
20260428T18Z_MSC_RDPS_WindDir_IsbL-0875_RLatLon0.09_PT074H.grib2 2026-04-28 21:02 865K
20260428T18Z_MSC_RDPS_WindDir_IsbL-0900_RLatLon0.09_PT074H.grib2 2026-04-28 21:02 885K
20260428T18Z_MSC_RDPS_WindDir_IsbL-0925_RLatLon0.09_PT074H.grib2 2026-04-28 21:02 892K
20260428T18Z_MSC_RDPS_WindDir_IsbL-0950_RLatLon0.09_PT074H.grib2 2026-04-28 21:02 894K
20260428T18Z_MSC_RDPS_WindDir_IsbL-0970_RLatLon0.09_PT074H.grib2 2026-04-28 21:02 902K
20260428T18Z_MSC_RDPS_WindDir_IsbL-0985_RLatLon0.09_PT074H.grib2 2026-04-28 21:02 912K
20260428T18Z_MSC_RDPS_WindDir_IsbL-1000_RLatLon0.09_PT074H.grib2 2026-04-28 21:02 924K
20260428T18Z_MSC_RDPS_WindDir_IsbL-1015_RLatLon0.09_PT074H.grib2 2026-04-28 21:02 936K
20260428T18Z_MSC_RDPS_WindGust-Max_AGL-10m_RLatLon0.09_PT074H.grib2 2026-04-28 21:02 1.0M
20260428T18Z_MSC_RDPS_WindGust-Min_AGL-10m_RLatLon0.09_PT074H.grib2 2026-04-28 21:02 965K
20260428T18Z_MSC_RDPS_WindGust_AGL-10m_RLatLon0.09_PT074H.grib2 2026-04-28 21:02 1.0M
20260428T18Z_MSC_RDPS_WindSpeed_AGL-10m_RLatLon0.09_PT074H.grib2 2026-04-28 21:02 829K
20260428T18Z_MSC_RDPS_WindSpeed_AGL-120m_RLatLon0.09_PT074H.grib2 2026-04-28 21:02 528K
20260428T18Z_MSC_RDPS_WindSpeed_AGL-40m_RLatLon0.09_PT074H.grib2 2026-04-28 21:02 659K
20260428T18Z_MSC_RDPS_WindSpeed_AGL-80m_RLatLon0.09_PT074H.grib2 2026-04-28 21:02 528K
20260428T18Z_MSC_RDPS_WindSpeed_IsbL-0001_RLatLon0.09_PT074H.grib2 2026-04-28 21:02 253K
20260428T18Z_MSC_RDPS_WindSpeed_IsbL-0005_RLatLon0.09_PT074H.grib2 2026-04-28 21:02 343K
20260428T18Z_MSC_RDPS_WindSpeed_IsbL-0010_RLatLon0.09_PT074H.grib2 2026-04-28 21:02 397K
20260428T18Z_MSC_RDPS_WindSpeed_IsbL-0020_RLatLon0.09_PT074H.grib2 2026-04-28 21:02 324K
20260428T18Z_MSC_RDPS_WindSpeed_IsbL-0030_RLatLon0.09_PT074H.grib2 2026-04-28 21:02 319K
20260428T18Z_MSC_RDPS_WindSpeed_IsbL-0050_RLatLon0.09_PT074H.grib2 2026-04-28 21:02 345K
20260428T18Z_MSC_RDPS_WindSpeed_IsbL-0100_RLatLon0.09_PT074H.grib2 2026-04-28 21:02 469K
20260428T18Z_MSC_RDPS_WindSpeed_IsbL-0150_RLatLon0.09_PT074H.grib2 2026-04-28 21:02 375K
20260428T18Z_MSC_RDPS_WindSpeed_IsbL-0175_RLatLon0.09_PT074H.grib2 2026-04-28 21:02 424K
20260428T18Z_MSC_RDPS_WindSpeed_IsbL-0200_RLatLon0.09_PT074H.grib2 2026-04-28 21:02 438K
20260428T18Z_MSC_RDPS_WindSpeed_IsbL-0225_RLatLon0.09_PT074H.grib2 2026-04-28 21:02 445K
20260428T18Z_MSC_RDPS_WindSpeed_IsbL-0250_RLatLon0.09_PT074H.grib2 2026-04-28 21:02 445K
20260428T18Z_MSC_RDPS_WindSpeed_IsbL-0275_RLatLon0.09_PT074H.grib2 2026-04-28 21:02 461K
20260428T18Z_MSC_RDPS_WindSpeed_IsbL-0300_RLatLon0.09_PT074H.grib2 2026-04-28 21:02 458K
20260428T18Z_MSC_RDPS_WindSpeed_IsbL-0350_RLatLon0.09_PT074H.grib2 2026-04-28 21:02 469K
20260428T18Z_MSC_RDPS_WindSpeed_IsbL-0400_RLatLon0.09_PT074H.grib2 2026-04-28 21:02 470K
20260428T18Z_MSC_RDPS_WindSpeed_IsbL-0450_RLatLon0.09_PT074H.grib2 2026-04-28 21:02 453K
20260428T18Z_MSC_RDPS_WindSpeed_IsbL-0500_RLatLon0.09_PT074H.grib2 2026-04-28 21:02 457K
20260428T18Z_MSC_RDPS_WindSpeed_IsbL-0550_RLatLon0.09_PT074H.grib2 2026-04-28 21:02 459K
20260428T18Z_MSC_RDPS_WindSpeed_IsbL-0600_RLatLon0.09_PT074H.grib2 2026-04-28 21:02 588K
20260428T18Z_MSC_RDPS_WindSpeed_IsbL-0650_RLatLon0.09_PT074H.grib2 2026-04-28 21:02 609K
20260428T18Z_MSC_RDPS_WindSpeed_IsbL-0700_RLatLon0.09_PT074H.grib2 2026-04-28 21:02 677K
20260428T18Z_MSC_RDPS_WindSpeed_IsbL-0750_RLatLon0.09_PT074H.grib2 2026-04-28 21:02 707K
20260428T18Z_MSC_RDPS_WindSpeed_IsbL-0800_RLatLon0.09_PT074H.grib2 2026-04-28 21:02 751K
20260428T18Z_MSC_RDPS_WindSpeed_IsbL-0850_RLatLon0.09_PT074H.grib2 2026-04-28 21:02 804K
20260428T18Z_MSC_RDPS_WindSpeed_IsbL-0875_RLatLon0.09_PT074H.grib2 2026-04-28 21:02 825K
20260428T18Z_MSC_RDPS_WindSpeed_IsbL-0900_RLatLon0.09_PT074H.grib2 2026-04-28 21:02 841K
20260428T18Z_MSC_RDPS_WindSpeed_IsbL-0925_RLatLon0.09_PT074H.grib2 2026-04-28 21:02 852K
20260428T18Z_MSC_RDPS_WindSpeed_IsbL-0950_RLatLon0.09_PT074H.grib2 2026-04-28 21:02 851K
20260428T18Z_MSC_RDPS_WindSpeed_IsbL-0970_RLatLon0.09_PT074H.grib2 2026-04-28 21:02 849K
20260428T18Z_MSC_RDPS_WindSpeed_IsbL-0985_RLatLon0.09_PT074H.grib2 2026-04-28 21:02 847K
20260428T18Z_MSC_RDPS_WindSpeed_IsbL-1000_RLatLon0.09_PT074H.grib2 2026-04-28 21:02 841K
20260428T18Z_MSC_RDPS_WindSpeed_IsbL-1015_RLatLon0.09_PT074H.grib2 2026-04-28 21:02 831K
20260428T18Z_MSC_RDPS_WindU_AGL-10m_RLatLon0.09_PT074H.grib2 2026-04-28 21:02 430K
20260428T18Z_MSC_RDPS_WindU_AGL-120m_RLatLon0.09_PT074H.grib2 2026-04-28 21:02 528K
20260428T18Z_MSC_RDPS_WindU_AGL-40m_RLatLon0.09_PT074H.grib2 2026-04-28 21:02 531K
20260428T18Z_MSC_RDPS_WindU_AGL-80m_RLatLon0.09_PT074H.grib2 2026-04-28 21:02 529K
20260428T18Z_MSC_RDPS_WindU_IsbL-0001_RLatLon0.09_PT074H.grib2 2026-04-28 21:02 244K
20260428T18Z_MSC_RDPS_WindU_IsbL-0005_RLatLon0.09_PT074H.grib2 2026-04-28 21:02 285K
20260428T18Z_MSC_RDPS_WindU_IsbL-0010_RLatLon0.09_PT074H.grib2 2026-04-28 21:02 297K
20260428T18Z_MSC_RDPS_WindU_IsbL-0020_RLatLon0.09_PT074H.grib2 2026-04-28 21:02 315K
20260428T18Z_MSC_RDPS_WindU_IsbL-0030_RLatLon0.09_PT074H.grib2 2026-04-28 21:02 313K
20260428T18Z_MSC_RDPS_WindU_IsbL-0050_RLatLon0.09_PT074H.grib2 2026-04-28 21:02 341K
20260428T18Z_MSC_RDPS_WindU_IsbL-0100_RLatLon0.09_PT074H.grib2 2026-04-28 21:02 426K
20260428T18Z_MSC_RDPS_WindU_IsbL-0150_RLatLon0.09_PT074H.grib2 2026-04-28 21:02 392K
20260428T18Z_MSC_RDPS_WindU_IsbL-0175_RLatLon0.09_PT074H.grib2 2026-04-28 21:02 415K
20260428T18Z_MSC_RDPS_WindU_IsbL-0200_RLatLon0.09_PT074H.grib2 2026-04-28 21:02 334K
20260428T18Z_MSC_RDPS_WindU_IsbL-0225_RLatLon0.09_PT074H.grib2 2026-04-28 21:02 338K
20260428T18Z_MSC_RDPS_WindU_IsbL-0250_RLatLon0.09_PT074H.grib2 2026-04-28 21:02 339K
20260428T18Z_MSC_RDPS_WindU_IsbL-0275_RLatLon0.09_PT074H.grib2 2026-04-28 21:02 376K
20260428T18Z_MSC_RDPS_WindU_IsbL-0300_RLatLon0.09_PT074H.grib2 2026-04-28 21:02 373K
20260428T18Z_MSC_RDPS_WindU_IsbL-0350_RLatLon0.09_PT074H.grib2 2026-04-28 21:02 355K
20260428T18Z_MSC_RDPS_WindU_IsbL-0400_RLatLon0.09_PT074H.grib2 2026-04-28 21:02 358K
20260428T18Z_MSC_RDPS_WindU_IsbL-0450_RLatLon0.09_PT074H.grib2 2026-04-28 21:02 460K
20260428T18Z_MSC_RDPS_WindU_IsbL-0500_RLatLon0.09_PT074H.grib2 2026-04-28 21:02 464K
20260428T18Z_MSC_RDPS_WindU_IsbL-0550_RLatLon0.09_PT074H.grib2 2026-04-28 21:02 468K
20260428T18Z_MSC_RDPS_WindU_IsbL-0600_RLatLon0.09_PT074H.grib2 2026-04-28 21:02 479K
20260428T18Z_MSC_RDPS_WindU_IsbL-0650_RLatLon0.09_PT074H.grib2 2026-04-28 21:02 497K
20260428T18Z_MSC_RDPS_WindU_IsbL-0700_RLatLon0.09_PT074H.grib2 2026-04-28 21:02 503K
20260428T18Z_MSC_RDPS_WindU_IsbL-0750_RLatLon0.09_PT074H.grib2 2026-04-28 21:02 530K
20260428T18Z_MSC_RDPS_WindU_IsbL-0800_RLatLon0.09_PT074H.grib2 2026-04-28 21:02 569K
20260428T18Z_MSC_RDPS_WindU_IsbL-0850_RLatLon0.09_PT074H.grib2 2026-04-28 21:02 615K
20260428T18Z_MSC_RDPS_WindU_IsbL-0875_RLatLon0.09_PT074H.grib2 2026-04-28 21:02 632K
20260428T18Z_MSC_RDPS_WindU_IsbL-0900_RLatLon0.09_PT074H.grib2 2026-04-28 21:02 651K
20260428T18Z_MSC_RDPS_WindU_IsbL-0925_RLatLon0.09_PT074H.grib2 2026-04-28 21:02 651K
20260428T18Z_MSC_RDPS_WindU_IsbL-0950_RLatLon0.09_PT074H.grib2 2026-04-28 21:02 648K
20260428T18Z_MSC_RDPS_WindU_IsbL-0970_RLatLon0.09_PT074H.grib2 2026-04-28 21:02 649K
20260428T18Z_MSC_RDPS_WindU_IsbL-0985_RLatLon0.09_PT074H.grib2 2026-04-28 21:02 787K
20260428T18Z_MSC_RDPS_WindU_IsbL-1000_RLatLon0.09_PT074H.grib2 2026-04-28 21:02 782K
20260428T18Z_MSC_RDPS_WindU_IsbL-1015_RLatLon0.09_PT074H.grib2 2026-04-28 21:02 821K
20260428T18Z_MSC_RDPS_WindV_AGL-10m_RLatLon0.09_PT074H.grib2 2026-04-28 21:02 427K
20260428T18Z_MSC_RDPS_WindV_AGL-120m_RLatLon0.09_PT074H.grib2 2026-04-28 21:02 524K
20260428T18Z_MSC_RDPS_WindV_AGL-40m_RLatLon0.09_PT074H.grib2 2026-04-28 21:02 526K
20260428T18Z_MSC_RDPS_WindV_AGL-80m_RLatLon0.09_PT074H.grib2 2026-04-28 21:02 525K
20260428T18Z_MSC_RDPS_WindV_IsbL-0001_RLatLon0.09_PT074H.grib2 2026-04-28 21:02 244K
20260428T18Z_MSC_RDPS_WindV_IsbL-0005_RLatLon0.09_PT074H.grib2 2026-04-28 21:02 285K
20260428T18Z_MSC_RDPS_WindV_IsbL-0010_RLatLon0.09_PT074H.grib2 2026-04-28 21:02 300K
20260428T18Z_MSC_RDPS_WindV_IsbL-0020_RLatLon0.09_PT074H.grib2 2026-04-28 21:02 318K
20260428T18Z_MSC_RDPS_WindV_IsbL-0030_RLatLon0.09_PT074H.grib2 2026-04-28 21:02 315K
20260428T18Z_MSC_RDPS_WindV_IsbL-0050_RLatLon0.09_PT074H.grib2 2026-04-28 21:02 340K
20260428T18Z_MSC_RDPS_WindV_IsbL-0100_RLatLon0.09_PT074H.grib2 2026-04-28 21:02 423K
20260428T18Z_MSC_RDPS_WindV_IsbL-0150_RLatLon0.09_PT074H.grib2 2026-04-28 21:02 392K
20260428T18Z_MSC_RDPS_WindV_IsbL-0175_RLatLon0.09_PT074H.grib2 2026-04-28 21:02 414K
20260428T18Z_MSC_RDPS_WindV_IsbL-0200_RLatLon0.09_PT074H.grib2 2026-04-28 21:02 333K
20260428T18Z_MSC_RDPS_WindV_IsbL-0225_RLatLon0.09_PT074H.grib2 2026-04-28 21:02 336K
20260428T18Z_MSC_RDPS_WindV_IsbL-0250_RLatLon0.09_PT074H.grib2 2026-04-28 21:02 335K
20260428T18Z_MSC_RDPS_WindV_IsbL-0275_RLatLon0.09_PT074H.grib2 2026-04-28 21:02 348K
20260428T18Z_MSC_RDPS_WindV_IsbL-0300_RLatLon0.09_PT074H.grib2 2026-04-28 21:02 344K
20260428T18Z_MSC_RDPS_WindV_IsbL-0350_RLatLon0.09_PT074H.grib2 2026-04-28 21:02 452K
20260428T18Z_MSC_RDPS_WindV_IsbL-0400_RLatLon0.09_PT074H.grib2 2026-04-28 21:02 455K
20260428T18Z_MSC_RDPS_WindV_IsbL-0450_RLatLon0.09_PT074H.grib2 2026-04-28 21:02 456K
20260428T18Z_MSC_RDPS_WindV_IsbL-0500_RLatLon0.09_PT074H.grib2 2026-04-28 21:02 460K
20260428T18Z_MSC_RDPS_WindV_IsbL-0550_RLatLon0.09_PT074H.grib2 2026-04-28 21:02 462K
20260428T18Z_MSC_RDPS_WindV_IsbL-0600_RLatLon0.09_PT074H.grib2 2026-04-28 21:02 456K
20260428T18Z_MSC_RDPS_WindV_IsbL-0650_RLatLon0.09_PT074H.grib2 2026-04-28 21:02 476K
20260428T18Z_MSC_RDPS_WindV_IsbL-0700_RLatLon0.09_PT074H.grib2 2026-04-28 21:02 499K
20260428T18Z_MSC_RDPS_WindV_IsbL-0750_RLatLon0.09_PT074H.grib2 2026-04-28 21:02 525K
20260428T18Z_MSC_RDPS_WindV_IsbL-0800_RLatLon0.09_PT074H.grib2 2026-04-28 21:02 561K
20260428T18Z_MSC_RDPS_WindV_IsbL-0850_RLatLon0.09_PT074H.grib2 2026-04-28 21:02 610K
20260428T18Z_MSC_RDPS_WindV_IsbL-0875_RLatLon0.09_PT074H.grib2 2026-04-28 21:02 763K
20260428T18Z_MSC_RDPS_WindV_IsbL-0900_RLatLon0.09_PT074H.grib2 2026-04-28 21:02 778K
20260428T18Z_MSC_RDPS_WindV_IsbL-0925_RLatLon0.09_PT074H.grib2 2026-04-28 21:02 787K
20260428T18Z_MSC_RDPS_WindV_IsbL-0950_RLatLon0.09_PT074H.grib2 2026-04-28 21:02 783K
20260428T18Z_MSC_RDPS_WindV_IsbL-0970_RLatLon0.09_PT074H.grib2 2026-04-28 21:02 784K
20260428T18Z_MSC_RDPS_WindV_IsbL-0985_RLatLon0.09_PT074H.grib2 2026-04-28 21:02 782K
20260428T18Z_MSC_RDPS_WindV_IsbL-1000_RLatLon0.09_PT074H.grib2 2026-04-28 21:02 822K
20260428T18Z_MSC_RDPS_WindV_IsbL-1015_RLatLon0.09_PT074H.grib2 2026-04-28 21:02 815K